Location: Newark
(54.2500°N, 9.1833°E)
Time: 15:49:09
(UTC+00:00)

Transit 4A - Pass Details

Date: 17 December 2019
Orbit: 871 x 973 km, 66.8° (Epoch: 17 January)

Event Time Altitude Azimuth Distance (km) Brightness Sun altitude
Rises 19:33:59 0° 298° (WNW) 3,543 11.8 -38.2°
Reaches altitude 10° 19:37:01 10° 311° (NW) 2,584 10.8 -38.7°
Enters shadow 19:39:32 20° 333° (NNW) 1,966 9.9 -39.0°
